Location: *
(35.8942°N, 23.3025°E)
Time: 18:06:48
(UTC+00:00)

Gurwin Techsat 1B - Pass Details

Date: 02 April 2023
Orbit: 811 x 813 km, 98.9° (Epoch: 03 June)

Event Time Altitude Azimuth Distance (km) Brightness Sun altitude
Rises 00:00:57 0° 35° (NE) 3,342 12.6 -44.2°
Reaches altitude 10° 00:04:25 10° 59° (ENE) 2,405 11.6 -43.8°
Enters shadow 00:04:54 11° 64° (ENE) 2,310 11.4 -43.7°
